Time,TemperatureF,DewpointF,PressureIn,WindDirection,WindDirectionDegrees,WindSpeedMPH,WindSpeedGustMPH,Humidity,HourlyPrecipIn,Conditions,Clouds,dailyrainin,SoftwareType,DateUTC
2013-06-22 11:02:00,82.0,74.0,30.13,South,178,0.0,2.0,78,0.00,,,2.76,,2013-06-22 15:02:00,
2013-06-22 11:12:00,82.0,74.0,30.13,South,173,0.0,2.0,78,0.00,,,2.76,,2013-06-22 15:12:00,
2013-06-22 11:34:00,83.0,74.0,30.14,ESE,122,0.0,3.0,75,0.00,,,2.76,,2013-06-22 15:34:00,
2013-06-22 11:43:00,83.0,74.0,30.14,ESE,113,0.0,3.0,74,0.00,,,2.76,,2013-06-22 15:43:00,
2013-06-22 11:53:00,84.0,74.0,30.14,SE,128,1.0,4.0,73,0.00,,,2.76,,2013-06-22 15:53:00,
2013-06-22 12:02:00,84.0,74.0,30.14,SE,128,0.0,2.0,72,0.00,,,2.76,,2013-06-22 16:02:00,
2013-06-22 12:12:00,85.0,74.0,30.14,SE,129,0.0,5.0,70,0.00,,,2.76,,2013-06-22 16:12:00,
2013-06-22 12:22:00,86.0,73.0,30.14,SE,137,1.0,4.0,65,0.00,,,2.76,,2013-06-22 16:22:00,
2013-06-22 12:34:00,86.0,74.0,30.14,SE,134,1.0,3.0,67,0.00,,,2.76,,2013-06-22 16:34:00,
2013-06-22 12:43:00,87.0,73.0,30.14,SE,124,0.0,3.0,63,0.00,,,2.76,,2013-06-22 16:43:00,
2013-06-22 12:52:00,87.0,72.0,30.13,ESE,121,0.0,3.0,62,0.00,,,2.76,,2013-06-22 16:52:00,
2013-06-22 13:02:00,88.0,71.0,30.13,SW,225,1.0,4.0,57,0.00,,,2.76,,2013-06-22 17:02:00,
2013-06-22 13:11:00,88.0,73.0,30.13,SE,132,0.0,3.0,62,0.00,,,2.76,,2013-06-22 17:11:00,
2013-06-22 13:22:00,89.0,71.0,30.13,SE,129,0.0,2.0,56,0.00,,,2.76,,2013-06-22 17:22:00,
2013-06-22 13:34:00,89.0,70.0,30.13,SE,127,0.0,2.0,53,0.00,,,2.76,,2013-06-22 17:34:00,
2013-06-22 13:43:00,90.0,72.0,30.13,SSE,153,0.0,10.0,55,0.00,,,2.76,,2013-06-22 17:43:00,
2013-06-22 13:52:00,90.0,72.0,30.12,SSE,153,0.0,4.0,56,0.00,,,2.76,,2013-06-22 17:52:00,
2013-06-22 14:02:00,90.0,71.0,30.12,SSE,155,3.0,10.0,54,0.00,,,2.76,,2013-06-22 18:02:00,
2013-06-22 14:12:00,90.0,72.0,30.12,South,180,0.0,7.0,56,0.00,,,2.76,,2013-06-22 18:12:00,
2013-06-22 14:23:00,90.0,72.0,30.11,SE,142,0.0,3.0,56,0.00,,,2.76,,2013-06-22 18:23:00,
2013-06-22 14:34:00,91.0,71.0,30.11,SE,144,0.0,3.0,53,0.00,,,2.76,,2013-06-22 18:34:00,
2013-06-22 14:43:00,91.0,71.0,30.11,South,184,1.0,6.0,53,0.00,,,2.76,,2013-06-22 18:43:00,
2013-06-22 14:52:00,91.0,72.0,30.10,SSE,161,0.0,4.0,54,0.00,,,2.76,,2013-06-22 18:52:00,
2013-06-22 15:01:00,91.0,71.0,30.10,SE,146,0.0,5.0,52,0.00,,,2.76,,2013-06-22 19:01:00,
2013-06-22 15:11:00,92.0,72.0,30.10,SE,140,0.0,2.0,52,0.00,,,2.76,,2013-06-22 19:11:00,
2013-06-22 15:22:00,92.0,71.0,30.09,SE,142,0.0,3.0,50,0.00,,,2.76,,2013-06-22 19:22:00,
2013-06-22 15:33:00,92.0,72.0,30.09,West,269,0.0,5.0,52,0.00,,,2.76,,2013-06-22 19:33:00,
2013-06-22 15:43:00,93.0,72.0,30.09,SSE,152,1.0,4.0,50,0.00,,,2.76,,2013-06-22 19:43:00,
2013-06-22 15:53:00,91.0,73.0,30.09,ENE,75,0.0,4.0,56,0.00,,,2.76,,2013-06-22 19:53:00,
2013-06-22 16:02:00,89.0,72.0,30.09,ENE,70,1.0,6.0,57,0.00,,,2.76,,2013-06-22 20:02:00,
2013-06-22 16:11:00,87.0,74.0,30.09,NE,40,3.0,10.0,65,0.00,,,2.76,,2013-06-22 20:11:00,
2013-06-22 16:22:00,84.0,73.0,30.09,ENE,78,1.0,6.0,69,0.00,,,2.76,,2013-06-22 20:22:00,
2013-06-22 16:33:00,83.0,72.0,30.10,NE,38,2.0,7.0,70,0.00,,,2.76,,2013-06-22 20:33:00,
2013-06-22 16:43:00,82.0,72.0,30.10,NNE,23,0.0,6.0,72,0.00,,,2.76,,2013-06-22 20:43:00,
2013-06-22 16:53:00,81.0,72.0,30.10,NE,36,2.0,4.0,74,0.00,,,2.76,,2013-06-22 20:53:00,
2013-06-22 17:01:00,81.0,73.0,30.10,NE,44,1.0,4.0,77,0.00,,,2.76,,2013-06-22 21:01:00,
2013-06-22 17:11:00,81.0,73.0,30.10,NE,44,1.0,4.0,77,0.00,,,2.76,,2013-06-22 21:11:00,
2013-06-22 17:22:00,81.0,73.0,30.10,NE,44,1.0,4.0,77,0.00,,,2.76,,2013-06-22 21:22:00,
2013-06-22 17:34:00,80.0,73.0,30.09,NNE,30,1.0,5.0,79,0.00,,,2.76,,2013-06-22 21:34:00,
2013-06-22 17:43:00,80.0,72.0,30.09,NNE,27,0.0,6.0,77,0.00,,,0.15,,2013-06-22 21:43:00,
2013-06-22 17:53:00,80.0,72.0,30.09,NNE,28,1.0,4.0,77,0.00,,,0.15,,2013-06-22 21:53:00,
2013-06-22 18:02:00,80.0,72.0,30.09,NNE,28,0.0,4.0,76,0.00,,,0.15,,2013-06-22 22:02:00,
2013-06-22 18:12:00,79.0,71.0,30.09,NNE,29,0.0,2.0,77,0.00,,,0.15,,2013-06-22 22:12:00,
2013-06-22 18:23:00,79.0,71.0,30.08,NNE,29,0.0,3.0,77,0.00,,,0.15,,2013-06-22 22:23:00,
2013-06-22 18:33:00,79.0,72.0,30.07,NNE,29,0.0,1.0,78,0.00,,,0.15,,2013-06-22 22:33:00,
2013-06-22 18:43:00,79.0,72.0,30.07,NNE,28,1.0,4.0,78,0.00,,,0.11,,2013-06-22 22:43:00,
2013-06-22 18:52:00,79.0,72.0,30.08,NE,36,0.0,4.0,78,0.01,,,0.12,,2013-06-22 22:52:00,
2013-06-22 19:01:00,79.0,72.0,30.08,NE,36,0.0,2.0,79,0.01,,,0.12,,2013-06-22 23:01:00,
2013-06-22 19:11:00,79.0,72.0,30.08,NE,36,0.0,0.0,80,0.01,,,0.12,,2013-06-22 23:11:00,
2013-06-22 19:22:00,78.0,72.0,30.08,West,274,1.0,7.0,82,0.01,,,0.12,,2013-06-22 23:22:00,
2013-06-22 19:34:00,78.0,72.0,30.08,North,9,0.0,4.0,83,0.01,,,0.12,,2013-06-22 23:34:00,
2013-06-22 19:43:00,78.0,73.0,30.08,North,9,1.0,3.0,84,0.01,,,0.02,,2013-06-22 23:43:00,
2013-06-22 19:52:00,77.0,72.0,30.08,North,9,0.0,3.0,85,0.00,,,0.02,,2013-06-22 23:52:00,
2013-06-22 20:01:00,77.0,72.0,30.09,North,9,0.0,3.0,85,0.00,,,0.02,,2013-06-23 00:01:00,
2013-06-22 20:11:00,77.0,72.0,30.09,North,9,0.0,3.0,86,0.00,,,0.02,,2013-06-23 00:11:00,
2013-06-22 20:22:00,77.0,73.0,30.09,North,9,0.0,3.0,87,0.00,,,0.02,,2013-06-23 00:22:00,
2013-06-22 20:33:00,77.0,73.0,30.09,North,9,0.0,0.0,87,0.00,,,0.02,,2013-06-23 00:33:00,
2013-06-22 20:42:00,76.0,72.0,30.09,North,9,0.0,2.0,87,0.00,,,0.01,,2013-06-23 00:42:00,
2013-06-22 20:53:00,76.0,72.0,30.09,North,9,0.0,2.0,87,0.00,,,0.01,,2013-06-23 00:53:00,
2013-06-22 21:01:00,76.0,72.0,30.09,North,5,1.0,3.0,88,0.00,,,0.01,,2013-06-23 01:01:00,
2013-06-22 21:11:00,76.0,72.0,30.09,North,5,1.0,3.0,88,0.00,,,0.01,,2013-06-23 01:11:00,
2013-06-22 21:22:00,76.0,72.0,30.09,North,5,0.0,2.0,88,0.00,,,0.01,,2013-06-23 01:22:00,
2013-06-22 21:32:00,76.0,72.0,30.09,North,5,0.0,2.0,88,0.00,,,0.01,,2013-06-23 01:32:00,
2013-06-22 21:42:00,76.0,72.0,30.09,North,5,0.0,2.0,88,0.00,,,0.01,,2013-06-23 01:42:00,
2013-06-22 21:52:00,76.0,73.0,30.10,North,5,0.0,0.0,89,0.00,,,0.01,,2013-06-23 01:52:00,
2013-06-22 22:01:00,76.0,73.0,30.10,North,5,0.0,0.0,89,0.00,,,0.01,,2013-06-23 02:01:00,
2013-06-22 22:11:00,76.0,73.0,30.10,North,5,0.0,0.0,89,0.00,,,0.01,,2013-06-23 02:11:00,
2013-06-22 22:21:00,76.0,73.0,30.10,North,5,0.0,0.0,89,0.00,,,0.01,,2013-06-23 02:21:00,
2013-06-22 22:31:00,76.0,73.0,30.10,North,5,0.0,0.0,89,0.00,,,0.01,,2013-06-23 02:31:00,
2013-06-22 23:01:00,76.0,73.0,30.10,North,5,0.0,0.0,89,0.00,,,0.01,,2013-06-23 03:01:00,
2013-06-22 23:11:00,76.0,73.0,30.10,North,5,0.0,0.0,89,0.00,,,0.01,,2013-06-23 03:11:00,
2013-06-22 23:21:00,76.0,73.0,30.10,North,5,0.0,0.0,89,0.00,,,0.01,,2013-06-23 03:21:00,
2013-06-22 23:31:00,76.0,73.0,30.10,North,5,0.0,0.0,89,0.00,,,0.01,,2013-06-23 03:31:00,
2013-06-22 23:41:00,76.0,73.0,30.10,North,5,0.0,0.0,89,0.00,,,0.01,,2013-06-23 03:41:00,
2013-06-22 23:52:00,76.0,73.0,30.13,North,5,0.0,1.0,89,0.00,,,0.01,,2013-06-23 03:52:00,